CDT,Max TemperatureF,Mean TemperatureF,Min TemperatureF,Max Dew PointF,MeanDew PointF,Min DewpointF,Max Humidity, Mean Humidity, Min Humidity, Max Sea Level PressureIn, Mean Sea Level PressureIn, Min Sea Level PressureIn, Max VisibilityMiles, Mean VisibilityMiles, Min VisibilityMiles, Max Wind SpeedMPH, Mean Wind SpeedMPH, Max Gust SpeedMPH,PrecipitationIn, CloudCover, Events, WindDirDegrees
2011-10-1,53,46,39,39,36,27,93,68,38,30.35,30.29,30.21,10,10,10,16,10,23,0.00,3,,26
2011-10-2,64,50,35,45,39,34,100,73,37,30.27,30.21,30.13,10,10,1,9,3,,0.00,0,,239
2011-10-3,64,55,46,52,47,41,100,76,48,30.29,30.23,30.15,10,10,10,10,5,,0.00,0,,21
2011-10-4,71,56,42,52,46,43,100,73,41,30.31,30.25,30.19,10,8,0,10,2,,0.00,1,,205
2011-10-5,71,60,48,55,49,46,100,71,43,30.27,30.23,30.20,10,10,4,12,5,,0.00,0,,143
2011-10-6,69,60,51,55,52,48,100,75,56,30.29,30.25,30.21,10,10,8,10,7,,0.00,0,,147
2011-10-7,69,62,55,57,54,50,94,74,60,30.29,30.24,30.18,10,10,9,17,10,25,0.00,0,,168
2011-10-8,75,68,60,59,55,54,77,69,53,30.28,30.23,30.16,10,10,10,16,11,22,0.00,0,,180
2011-10-9,75,66,57,57,53,48,77,64,50,30.35,30.29,30.24,10,10,10,13,8,17,0.00,0,,187
2011-10-10,69,61,53,55,51,46,94,70,49,30.26,30.17,30.04,10,10,6,13,6,16,0.00,0,,156
2011-10-11,73,65,57,57,54,52,94,73,50,30.04,30.00,29.92,10,10,8,13,8,17,0.00,2,,173
2011-10-12,68,62,55,57,54,50,100,82,60,29.93,29.84,29.70,10,8,2,9,4,,0.11,3,,114
2011-10-13,57,55,53,54,53,50,100,93,77,29.69,29.53,29.37,10,8,2,16,8,23,0.72,6,,105
2011-10-14,53,50,46,52,42,37,94,73,62,29.48,29.41,29.36,10,10,9,24,15,37,0.06,8,,285
2011-10-15,55,50,44,39,34,32,81,53,44,29.71,29.58,29.44,10,10,10,28,20,40,0.05,3,,287
2011-10-16,55,50,46,37,33,25,66,52,33,29.73,29.65,29.58,10,10,10,25,14,33,0.00,3,,266
2011-10-17,55,50,44,37,33,30,66,52,44,29.73,29.63,29.59,10,10,10,23,16,30,0.00,3,,282
2011-10-18,50,46,42,39,36,34,81,69,58,29.94,29.84,29.73,10,10,10,14,9,17,0.00,7,,358
2011-10-19,51,46,41,39,37,32,87,72,50,29.94,29.88,29.77,10,10,7,26,14,37,0.04,7,,22
2011-10-20,46,,46,36,36,36,66,66,66,29.79,29.63,29.57,10,9,4,32,26,45,0.14,8,,352
2011-10-21,48,44,39,37,35,32,93,72,58,30.02,29.97,29.82,10,10,10,16,10,23,0.00,5,,289
2011-10-22,57,47,37,43,37,30,87,70,48,30.04,30.01,29.97,10,10,10,9,5,,0.00,1,,239
2011-10-23,55,46,37,48,43,36,100,84,51,30.00,29.89,29.75,10,7,0,13,5,21,0.10,5,,164
2011-10-24,57,50,42,43,37,30,87,65,36,30.08,29.93,29.79,10,10,10,18,11,24,0.01,0,,282
2011-10-25,46,45,42,41,39,36,93,83,66,30.10,30.01,29.89,10,9,5,16,8,23,0.24,8,Thunderstorm,65
2011-10-26,46,44,42,41,36,32,87,74,61,30.03,29.98,29.92,10,10,10,17,10,21,0.01,7,,18
2011-10-27,44,38,33,37,33,28,93,74,53,30.11,30.05,30.00,10,10,10,13,7,17,0.00,2,,341
2011-10-28,42,38,33,37,33,30,100,86,70,30.15,30.11,30.00,10,9,5,6,5,,0.00,4,,208
2011-10-29,48,40,32,39,33,28,100,77,46,30.09,30.04,29.97,10,8,0,9,3,,0.00,2,,242
2011-10-30,48,42,37,43,37,30,93,81,71,30.09,30.02,29.90,10,10,7,16,8,28,0.07,4,,158
2011-10-31,46,42,39,43,38,34,93,81,62,30.10,30.00,29.88,10,7,2,12,7,17,0.01,7,,216